Wind_Speed
54 53 49 46 48 46 46 48 49 49 53 50 46 41 40 42 40 41 40 39 36 35 35 34 34 35 38 39 41 42 41 40 40 39 40 41 41 41 41 41 41 41 42 44
50 49 48 48 47 45 41 41 39 41 46 48 49 44 40 43 39 40 43 44 44 43 42 37 37 38 38 41 42 43 44 44 42 42 43 44 43 44 44 44 44 45 46 47
50 45 46 47 44 41 39 37 35 35 36 38 38 36 36 39 39 40 42 43 43 43 45 42 39 41 42 43 44 44 46 46 45 46 47 47 47 47 47 48 48 49 50 52
54 50 42 43 46 44 41 39 38 40 39 40 39 42 35 36 35 35 35 37 39 42 44 42 42 41 42 44 45 46 46 47 48 49 50 50 49 50 50 51 52 53 55 55
52 49 45 43 41 45 44 42 41 40 42 45 42 41 31 32 29 29 32 33 34 34 35 41 44 41 40 41 43 45 46 48 49 50 51 51 52 53 53 53 54 56 57 57
58 50 51 45 40 42 45 47 44 43 42 41 38 39 35 31 31 30 30 30 31 31 35 36 38 42 41 41 42 41 43 47 49 50 51 52 53 54 55 56 57 57 58 58
61 54 50 50 52 52 46 45 45 44 42 42 38 39 39 35 32 32 32 31 31 32 33 34 36 39 42 44 44 43 44 45 46 47 50 51 53 55 56 56 57 58 57 57
50 53 49 43 44 42 41 39 40 42 43 42 40 40 41 38 37 35 33 33 33 33 35 35 35 37 38 39 40 41 43 43 43 45 48 50 52 53 55 56 57 58 58 59
50 47 43 41 39 42 42 43 39 42 43 44 45 43 43 40 39 39 37 36 37 37 36 36 37 38 36 38 41 40 40 41 43 45 48 50 52 53 54 56 56 57 58 58
42 47 47 49 49 49 46 42 43 45 46 45 45 43 42 42 41 40 40 40 41 41 40 39 40 41 41 41 41 40 41 42 44 46 48 50 51 53 55 56 57 58 60 60
43 47 48 49 47 43 42 43 42 44 46 46 46 45 42 42 42 41 41 42 42 41 39 38 37 38 38 39 40 40 41 43 44 46 48 51 53 55 57 58 59 61 62 62
46 50 48 46 45 43 44 45 45 46 45 45 45 42 43 41 41 41 41 41 41 42 41 40 38 36 35 36 37 39 41 43 45 47 48 50 54 57 60 62 62 61 59 57
35 39 44 47 48 48 47 43 42 43 44 44 43 41 39 40 41 42 42 41 41 41 41 40 38 35 36 39 41 44 45 46 49 50 53 57 60 61 60 59 58 57 55 54
37 38 37 38 36 37 36 34 37 39 40 40 37 37 37 37 38 38 37 38 38 39 38 38 37 36 37 39 41 44 46 48 50 52 53 53 53 54 53 53 52 50 49 49
41 41 40 40 40 38 38 39 38 38 36 37 32 31 29 34 35 39 40 38 38 39 39 38 36 35 36 38 39 41 42 43 44 44 43 42 43 44 45 45 44 44 46 49
35 40 39 40 41 42 40 39 39 39 38 32 33 31 31 35 40 40 39 39 42 36 34 35 32 30 30 32 32 32 33 32 30 30 33 35 35 37 43 45 49 52 52 56
36 36 37 38 37 41 42 39 38 35 35 32 33 25 35 34 34 37 39 37 29 30 30 27 28 27 28 28 29 29 32 32 34 35 41 44 46 49 56 54 56 57 58 61
30 31 34 39 40 42 38 34 30 29 28 29 31 32 32 34 37 36 29 28 30 28 26 25 25 25 26 27 28 34 35 37 40 44 44 44 47 51 53 54 60 63 67 70
32 33 31 33 31 30 30 28 24 28 26 29 27 29 33 35 33 28 24 29 25 23 22 23 24 28 34 38 40 39 40 40 43 48 53 57 58 59 62 63 68 70 72 72
34 29 29 30 29 26 23 24 25 25 28 26 26 29 32 30 26 21 24 22 22 26 29 30 32 36 40 41 40 42 46 47 51 56 59 61 65 69 70 74 74 77 83 81
36 31 28 25 23 22 20 23 26 28 27 27 27 27 23 21 21 25 25 28 30 32 36 39 42 45 44 44 46 49 51 55 59 62 65 69 72 77 80 82 81 83 85 86
41 37 32 30 27 29 24 23 27 31 32 31 30 26 24 25 28 31 33 34 35 40 44 44 44 46 49 51 50 53 57 61 64 68 71 76 80 82 84 87 88 87 79 69
47 45 41 37 30 28 31 32 32 34 34 33 29 29 33 35 36 37 37 40 42 43 43 46 50 55 55 53 56 60 62 66 69 73 76 79 82 80 71 65 59 56 53 48
47 46 45 41 36 35 35 36 38 38 37 37 38 41 41 42 42 43 47 49 48 49 52 55 57 57 56 60 64 65 68 71 75 77 77 79 62 58 57 57 53 50 41 35
49 46 43 40 40 42 42 37 38 42 45 46 46 46 48 50 52 51 51 51 52 55 58 60 61 60 62 65 69 71 73 74 80 78 71 58 56 55 58 50 46 36 24 20
46 44 42 40 38 41 44 46 47 49 49 48 52 53 53 54 54 54 53 57 60 62 62 63 64 67 68 70 72 75 76 79 77 64 55 58 55 56 40 37 28 21 19 17
Wind_Direction
234 237 238 242 241 239 239 240 246 246 245 247 252 252 256 257 258 262 262 265 267 271 270 266 263 257 253 254 257 259 260 261 263 266 267 269 270 270 271 273 275 279 283 285
230 233 233 235 233 236 236 236 239 239 242 247 251 254 254 258 255 255 257 260 261 262 265 265 263 262 259 256 256 258 260 261 261 263 263 266 268 270 272 274 277 280 282 284
236 234 235 236 240 241 244 245 246 247 244 247 249 253 253 257 259 257 257 259 261 261 260 261 260 258 258 256 254 254 256 260 262 262 264 266 267 269 273 276 279 281 283 285
234 231 231 237 241 238 243 245 245 251 247 247 251 255 251 250 258 262 263 263 265 263 260 261 261 259 259 258 259 256 256 258 260 262 263 265 267 270 272 275 277 281 283 285
232 236 232 233 239 246 245 244 249 248 249 248 250 255 246 252 255 259 262 268 269 270 269 264 263 266 264 262 260 260 260 260 262 263 265 267 269 272 274 278 281 282 283 285
235 232 231 226 233 241 244 246 248 253 247 247 247 252 252 247 249 256 265 268 270 270 269 269 267 265 266 267 267 266 265 266 266 268 270 271 273 276 277 278 279 281 283 286
233 232 235 239 241 240 243 242 245 246 246 247 248 250 257 255 249 253 259 262 265 268 270 269 267 266 267 267 268 269 269 267 268 270 273 274 275 276 277 278 279 281 284 286
233 235 236 235 240 233 235 237 239 241 242 246 249 249 256 258 260 260 260 261 263 267 267 268 270 269 268 269 269 269 270 270 271 272 272 272 273 274 275 278 280 283 286 288
229 226 227 223 222 224 228 232 237 243 246 248 250 253 259 261 262 264 264 263 266 269 269 266 266 268 271 270 270 271 271 271 271 270 270 271 272 274 277 281 283 285 286 290
217 218 221 223 226 229 231 232 236 242 248 252 254 254 256 260 262 266 271 271 269 269 270 268 268 269 271 272 271 272 269 268 269 269 272 274 277 279 281 282 285 287 290 292
220 217 220 223 227 231 236 238 241 245 248 251 253 255 258 262 266 269 271 276 279 279 278 275 273 273 271 270 270 270 270 269 269 270 273 275 277 279 281 284 286 288 290 290
228 224 228 231 233 235 237 240 241 242 245 249 254 258 265 268 270 274 276 276 276 278 279 280 279 277 272 269 268 269 271 272 273 274 277 280 281 282 283 284 285 286 287 287
234 224 225 228 229 230 233 236 241 246 248 248 252 257 260 265 269 271 273 277 281 279 279 279 275 272 268 267 268 269 273 276 278 281 282 283 285 286 288 289 290 290 289 288
228 225 225 228 233 234 237 240 243 244 242 245 247 253 260 264 268 275 280 279 282 286 286 283 282 280 278 277 278 279 280 280 282 283 285 288 289 290 290 290 290 290 290 290
225 231 234 235 234 233 234 239 241 240 244 247 250 255 266 269 273 270 273 281 281 280 280 282 283 282 281 280 279 280 283 285 285 286 287 289 290 292 291 290 291 293 295 296
232 233 239 241 238 239 238 236 240 239 241 245 256 252 267 265 266 273 278 278 277 282 283 282 283 280 283 285 286 285 288 291 298 304 306 305 304 307 313 311 314 305 298 297
237 240 235 237 239 236 235 233 236 248 251 255 250 258 262 271 272 272 272 280 284 284 288 292 291 299 298 295 295 306 310 306 302 303 307 309 309 308 311 309 306 300 293 292
231 236 234 233 229 234 238 240 247 250 255 261 261 265 271 272 272 274 280 280 283 286 291 292 298 299 301 301 299 301 299 300 301 303 305 300 298 296 295 295 296 298 293 290
225 227 232 235 234 234 230 233 247 254 258 266 269 270 272 273 274 280 274 277 282 285 287 291 298 302 300 300 294 291 292 295 300 302 303 303 299 293 288 287 293 297 296 291
217 222 227 230 233 232 235 246 254 261 264 265 270 271 270 274 281 264 277 279 282 288 290 289 289 297 299 297 293 291 290 292 293 298 298 296 293 293 293 294 291 292 293 291
221 226 231 232 237 235 242 255 260 263 264 267 269 269 269 270 265 275 282 287 290 290 291 287 288 287 292 293 293 291 291 291 294 296 295 296 296 296 295 293 293 292 290 290
225 231 236 237 238 238 243 265 267 265 262 262 264 267 271 274 277 283 284 284 287 290 291 292 294 295 297 296 290 290 294 293 295 297 297 297 297 297 296 295 294 292 291 288
227 240 241 246 246 247 253 260 263 258 258 259 267 272 273 274 278 283 284 284 286 289 291 292 294 295 295 288 290 293 294 294 295 296 298 300 300 300 300 300 298 297 289 281
231 233 238 244 250 254 255 262 262 261 261 266 268 271 276 278 280 281 281 283 286 291 291 290 289 289 287 288 292 291 291 295 298 299 300 299 299 300 298 297 300 298 287 276
234 237 242 246 252 256 263 261 257 256 258 263 269 274 274 273 274 276 280 285 287 286 285 285 286 288 287 289 290 291 294 296 297 298 297 296 299 296 296 300 296 291 275 260
239 244 247 249 253 256 256 256 259 259 260 263 266 267 268 270 274 278 281 283 285 284 284 286 287 285 287 291 292 294 294 296 296 293 293 293 297 296 295 302 292 273 269 259
Height
5765 5771 5777 5783 5786 5790 5794 5798 5802 5806 5809 5811 5813 5820 5822 5821 5824 5826 5826 5827 5827 5828 5829 5830 5831 5831 5831 5831 5831 5831 5831 5830 5830 5829 5828 5826 5825 5824 5822 5820 5819 5817 5816 5813
5756 5762 5769 5773 5777 5782 5786 5790 5794 5797 5800 5803 5805 5811 5813 5812 5817 5817 5817 5818 5819 5819 5821 5821 5822 5822 5822 5822 5822 5822 5823 5822 5822 5821 5819 5818 5816 5815 5814 5813 5811 5809 5807 5804
5747 5755 5759 5763 5768 5773 5778 5782 5786 5789 5792 5794 5798 5802 5804 5805 5806 5807 5807 5808 5810 5809 5811 5812 5812 5812 5811 5811 5811 5811 5812 5813 5813 5812 5811 5809 5807 5806 5805 5804 5802 5800 5797 5794
5735 5744 5750 5755 5760 5765 5770 5775 5778 5782 5784 5785 5790 5790 5797 5797 5798 5798 5799 5800 5799 5800 5800 5802 5802 5803 5803 5803 5802 5801 5802 5803 5803 5802 5801 5800 5799 5798 5796 5793 5791 5789 5786 5782
5730 5737 5743 5749 5754 5757 5761 5766 5769 5772 5773 5776 5781 5782 5791 5790 5790 5791 5791 5791 5791 5791 5791 5792 5793 5793 5792 5793 5794 5794 5794 5793 5793 5793 5791 5790 5789 5788 5785 5783 5780 5777 5774 5770
5718 5727 5733 5739 5743 5748 5753 5757 5761 5763 5765 5767 5773 5774 5777 5783 5784 5784 5783 5782 5783 5783 5783 5784 5784 5784 5784 5784 5785 5784 5784 5784 5783 5783 5782 5781 5779 5777 5774 5771 5768 5764 5761 5758
5708 5717 5724 5730 5734 5739 5746 5750 5752 5755 5756 5758 5764 5765 5767 5772 5776 5777 5776 5776 5775 5774 5774 5774 5774 5774 5775 5775 5775 5774 5774 5773 5773 5772 5771 5769 5767 5764 5761 5758 5755 5752 5749 5746
5701 5710 5716 5720 5725 5732 5737 5740 5743 5744 5747 5750 5754 5757 5758 5762 5764 5767 5768 5768 5767 5767 5766 5765 5765 5765 5765 5765 5764 5763 5763 5763 5762 5761 5759 5756 5753 5750 5748 5745 5743 5740 5737 5734
5692 5698 5706 5712 5717 5722 5726 5729 5736 5738 5739 5742 5744 5749 5751 5752 5754 5755 5757 5758 5758 5757 5757 5756 5756 5756 5755 5755 5754 5753 5752 5751 5749 5747 5745 5742 5740 5738 5736 5734 5731 5729 5726 5722
5682 5688 5696 5702 5707 5712 5717 5723 5726 5728 5731 5733 5736 5739 5741 5742 5744 5745 5745 5745 5747 5747 5747 5747 5746 5745 5745 5744 5743 5742 5741 5739 5736 5735 5733 5731 5729 5727 5725 5722 5720 5717 5713 5708
5673 5680 5688 5692 5697 5705 5710 5714 5719 5722 5723 5724 5725 5728 5730 5732 5732 5733 5733 5733 5733 5733 5734 5734 5734 5734 5733 5732 5731 5730 5728 5727 5725 5724 5723 5721 5719 5716 5713 5710 5706 5703 5699 5694
5665 5670 5677 5685 5690 5694 5698 5702 5706 5709 5713 5715 5716 5719 5719 5721 5721 5721 5722 5722 5723 5723 5722 5722 5723 5723 5723 5722 5721 5719 5717 5716 5715 5714 5713 5710 5707 5704 5700 5697 5693 5689 5684 5679
5661 5664 5669 5674 5680 5683 5687 5693 5699 5702 5704 5707 5709 5712 5713 5713 5712 5712 5712 5712 5713 5712 5712 5713 5712 5712 5712 5712 5710 5708 5708 5707 5704 5702 5699 5696 5694 5690 5686 5683 5679 5675 5670 5666
5651 5656 5661 5668 5674 5679 5682 5687 5690 5692 5694 5697 5703 5702 5704 5703 5702 5703 5704 5703 5702 5702 5702 5701 5701 5701 5701 5700 5699 5698 5697 5695 5693 5690 5687 5684 5680 5677 5673 5670 5666 5662 5657 5653
5645 5649 5655 5660 5664 5668 5673 5677 5680 5683 5688 5689 5695 5696 5697 5694 5693 5693 5694 5695 5694 5693 5692 5692 5691 5691 5691 5690 5689 5687 5686 5684 5680 5677 5674 5671 5668 5665 5661 5658 5654 5649 5645 5641
5639 5643 5646 5652 5656 5660 5664 5670 5673 5675 5677 5683 5685 5690 5686 5684 5683 5686 5687 5685 5684 5684 5683 5683 5683 5682 5681 5680 5679 5677 5675 5673 5671 5668 5665 5662 5659 5655 5651 5647 5643 5639 5635 5630
5633 5637 5640 5645 5648 5651 5657 5664 5665 5669 5671 5675 5676 5680 5675 5677 5677 5676 5675 5675 5675 5673 5673 5673 5672 5671 5671 5670 5669 5667 5665 5662 5660 5657 5654 5650 5646 5641 5637 5634 5631 5628 5623 5617
5627 5631 5634 5638 5639 5643 5656 5657 5660 5661 5662 5664 5666 5667 5666 5666 5666 5666 5668 5666 5665 5664 5664 5664 5663 5662 5662 5660 5657 5655 5654 5652 5649 5645 5641 5637 5634 5629 5625 5621 5617 5613 5608 5603
5622 5624 5628 5632 5636 5643 5646 5650 5651 5652 5656 5654 5656 5656 5657 5657 5657 5660 5658 5658 5658 5658 5657 5656 5655 5654 5654 5652 5649 5647 5643 5639 5635 5631 5628 5624 5619 5615 5610 5606 5600 5595 5589 5584
5614 5618 5622 5627 5630 5635 5640 5641 5642 5643 5647 5641 5646 5647 5649 5649 5652 5647 5651 5652 5652 5650 5649 5647 5646 5645 5643 5640 5637 5634 5630 5626 5621 5618 5613 5608 5603 5597 5591 5586 5580 5574 5568 5563
5607 5611 5617 5620 5623 5628 5632 5632 5633 5634 5635 5634 5637 5639 5640 5642 5642 5640 5641 5642 5642 5641 5640 5639 5636 5633 5630 5627 5624 5619 5615 5610 5606 5602 5596 5589 5583 5578 5570 5563 5557 5551 5544 5539
5601 5604 5609 5612 5615 5622 5625 5625 5626 5623 5624 5627 5628 5630 5632 5632 5632 5632 5631 5631 5631 5629 5628 5626 5624 5621 5617 5613 5608 5604 5600 5592 5588 5584 5577 5571 5564 5556 5546 5539 5532 5525 5520 5516
5592 5596 5601 5606 5610 5613 5613 5614 5614 5614 5615 5617 5620 5621 5621 5620 5620 5621 5620 5619 5617 5616 5614 5612 5609 5606 5601 5596 5592 5588 5582 5576 5571 5566 5558 5550 5542 5534 5524 5517 5510 5503 5498 5498
5583 5588 5592 5595 5600 5602 5603 5604 5604 5604 5606 5607 5608 5609 5610 5610 5609 5608 5606 5605 5604 5602 5600 5597 5595 5591 5587 5579 5575 5571 5566 5560 5554 5547 5539 5532 5524 5518 5511 5503 5496 5489 5485 5486
5575 5579 5584 5586 5589 5591 5591 5593 5592 5593 5593 5594 5596 5598 5597 5596 5594 5594 5594 5594 5592 5588 5585 5582 5579 5576 5572 5564 5558 5553 5547 5541 5535 5529 5523 5517 5511 5505 5498 5490 5484 5479 5476 5477
5565 5569 5571 5576 5576 5576 5579 5580 5580 5582 5582 5583 5583 5583 5582 5582 5582 5581 5581 5578 5575 5572 5567 5564 5561 5556 5553 5547 5541 5535 5529 5524 5518 5512 5508 5502 5498 5492 5487 5482 5476 5473 5471 5473